Location: ??? ?????
(30.6482°N, 60.5850°E)
Time: 05:34:31
(UTC+00:00)

SEDSat Delta rocket - Pass Details

Date: 09 April 2020
Orbit: 533 x 1000 km, 31.4° (Epoch: 05 June)

Event Time Altitude Azimuth Distance (km) Brightness Sun altitude
Rises 15:56:57 0° 279° (W) 3,254 8.2 -20.4°
Reaches altitude 10° 15:59:43 10° 272° (W) 2,239 6.9 -21.0°
Maximum altitude 16:04:32 38° 205° (SSW) 1,008 4.1 -21.9°
Enters shadow 16:05:24 35° 179° (S) 1,051 4.0 -22.1°
